Location: Home
(42.5358°N, 72.7383°W)
Time: 18:05:22
(UTC-05:00)

Tiros 1 - Pass Details

Date: 08 December 2021
Orbit: 629 x 664 km, 48.4° (Epoch: 18 January)

Event Time Altitude Azimuth Distance (km) Brightness Sun altitude
Rises 22:04:30 0° 296° (WNW) 2,944 - -61.6°
Reaches altitude 10° 22:06:50 10° 294° (WNW) 2,038 - -61.9°
Maximum altitude 22:11:30 69° 211° (SSW) 693 - -62.6°
Drops below altitude 10° 22:16:12 10° 129° (SE) 2,052 - -63.3°
Sets 22:18:33 0° 127° (SE) 2,966 - -63.6°
